EHI
0 0 0 0 0 0 0 0 0 0 0 1 1 1 0 1 1 1 2 4 8 11 12 10 7 7 9 7 4 4 6 6 6 6 7 8 8 6 5 5 5 5 3 1
0 0 0 0 0 0 0 0 0 0 0 1 1 0 0 1 1 0 1 3 7 11 11 9 7 8 9 7 5 4 5 6 6 6 6 7 6 5 4 5 6 5 3 1
0 0 0 0 0 0 0 0 0 0 0 1 1 0 1 1 0 0 0 2 6 9 10 8 7 9 10 8 5 4 4 5 4 4 4 5 5 4 4 5 6 5 3 2
0 0 0 0 0 0 0 0 0 0 0 1 1 2 1 1 1 1 2 4 6 7 8 8 9 9 8 6 4 3 3 3 3 3 3 4 5 5 5 5 6 6 4 3
0 0 0 0 0 0 0 1 0 0 0 0 1 2 2 2 2 3 5 6 6 5 6 7 8 8 6 4 3 3 2 3 3 3 3 4 5 6 7 7 7 7 5 3
0 0 0 0 0 0 0 1 1 1 1 1 2 2 2 1 1 3 5 5 4 4 5 6 7 6 5 3 3 3 2 3 3 3 3 4 5 7 9 9 8 7 5 3
0 0 0 0 0 0 0 1 2 2 2 3 4 4 2 1 1 2 3 3 3 3 5 6 7 7 5 3 3 3 3 3 4 4 4 4 5 7 9 10 8 6 4 3
0 0 0 0 0 0 0 1 2 2 2 3 4 3 1 1 1 2 2 2 3 4 6 7 8 7 5 4 3 3 3 4 6 6 5 4 4 7 9 10 7 5 3 2
0 0 0 0 0 0 0 1 1 1 1 1 1 1 0 0 1 2 3 3 3 4 6 7 7 7 5 4 4 3 4 5 6 6 5 4 4 6 8 9 7 4 2 1
0 0 0 0 0 0 0 0 0 0 0 0 0 0 0 0 0 1 3 4 4 4 5 6 6 6 5 5 4 4 3 4 4 4 4 4 4 5 6 7 6 5 3 1
0 0 0 0 0 0 0 0 0 0 0 0 0 0 0 0 0 0 2 3 4 4 3 4 5 6 6 6 5 4 4 3 3 3 3 4 4 5 5 5 5 5 3 1
0 0 0 0 0 0 0 0 0 0 0 0 0 0 0 0 0 0 0 1 3 3 1 1 3 5 6 6 6 6 5 4 3 3 3 4 4 4 3 3 2 2 1 1
0 0 0 0 0 0 0 0 0 0 0 0 0 0 0 0 0 0 0 1 2 2 1 0 1 3 5 6 6 6 6 4 3 3 3 4 5 4 3 2 0 0 0 0
0 0 0 0 0 0 0 0 0 0 0 0 0 0 0 0 0 0 0 0 1 1 1 0 0 1 4 5 6 6 6 4 3 4 4 4 6 5 4 2 1 0 0 0
0 0 0 0 0 0 0 0 0 0 0 0 0 0 0 0 0 0 0 0 0 0 0 0 0 1 2 4 4 5 5 4 4 4 4 5 6 6 4 3 2 1 0 0
0 0 0 0 0 0 0 0 0 0 0 0 0 0 0 0 0 0 0 0 0 0 0 0 0 0 1 2 3 3 3 3 3 3 4 4 5 5 4 3 3 1 0 0
0 0 0 0 0 0 0 0 0 0 0 0 0 0 0 0 0 0 0 0 0 0 0 0 0 0 0 1 2 1 1 1 2 3 3 3 4 4 3 3 3 1 0 0
0 0 0 0 0 0 0 0 0 0 0 0 0 0 0 0 0 0 0 0 0 0 0 0 0 0 0 1 2 1 1 1 1 2 3 3 3 3 3 3 2 1 0 0
0 0 0 0 0 0 0 0 0 0 0 0 0 0 0 0 0 0 0 0 0 0 1 1 0 0 1 1 1 1 1 0 0 1 3 3 2 2 1 1 2 2 1 0
0 0 0 0 0 0 0 0 0 0 0 0 0 0 0 0 0 0 0 0 1 1 2 2 1 0 1 1 1 0 0 0 0 0 1 1 1 1 1 1 3 2 1 0
0 0 0 0 0 0 0 0 0 0 0 0 0 0 0 0 0 0 0 1 2 1 1 1 0 0 0 0 0 0 0 0 0 0 0 0 0 1 2 3 3 2 1 0
0 0 0 0 0 0 0 0 0 0 0 0 0 0 0 0 0 0 0 0 1 0 0 0 0 0 0 0 0 0 0 0 0 0 0 0 0 1 2 2 2 1 0 0
0 0 0 0 0 0 0 0 0 0 0 0 0 0 0 0 0 0 0 0 0 0 0 0 0 0 0 0 0 0 0 0 0 0 0 0 0 0 1 1 1 0 0 0
0 0 0 0 0 0 0 0 0 0 0 0 0 0 0 0 0 0 0 0 0 0 0 0 0 0 0 0 0 0 0 0 0 0 0 0 0 0 1 1 1 0 0 0
0 0 0 0 0 0 0 0 0 0 0 0 0 0 0 0 0 0 0 0 0 0 0 0 0 0 0 0 0 0 0 0 0 0 0 0 0 0 1 1 1 0 0 0
0 0 0 0 0 0 0 0 0 0 0 0 0 0 0 0 0 0 0 0 0 0 0 0 0 0 0 0 0 0 0 0 0 0 0 0 0 0 1 1 0 0 0 0
0 0 0 0 0 0 0 0 0 0 0 0 0 0 0 0 0 0 0 0 0 0 0 0 0 0 0 0 0 0 0 0 0 0 0 0 0 1 1 1 0 0 0 0
Wind_Speed
9 10 9 9 10 9 6 7 7 8 7 7 8 8 9 8 7 7 7 7 7 6 6 5 5 5 5 6 6 6 5 5 4 4 3 3 2 2 2 2 3 2 1 1
10 10 8 9 8 8 7 7 6 6 6 7 7 8 8 8 8 8 8 8 7 7 6 6 6 6 6 6 6 6 5 5 5 4 3 3 3 2 2 3 2 2 1 1
9 8 9 6 6 6 6 7 7 6 7 8 8 8 8 8 9 9 8 8 8 7 6 6 6 5 5 6 5 5 5 4 4 3 3 3 4 3 3 3 2 2 2 2
9 9 8 2 5 5 5 6 7 7 8 9 7 7 6 8 9 9 9 9 8 7 6 5 6 5 5 6 5 5 5 4 4 3 3 3 3 3 3 2 2 2 2 1
6 7 4 2 5 5 5 5 8 8 8 9 8 6 5 9 10 9 9 8 7 6 6 5 6 5 6 6 6 6 5 5 5 4 4 3 3 3 2 2 2 2 2 1
7 8 6 4 6 6 5 1 8 9 9 10 10 6 5 9 10 10 8 7 7 7 6 5 5 5 6 6 6 6 6 5 5 4 4 4 3 3 2 2 3 2 2 1
7 8 2 6 6 6 4 5 8 8 9 9 8 6 6 8 8 8 8 7 7 7 6 5 5 5 6 6 6 6 6 5 5 4 4 3 2 2 2 3 3 3 2 1
5 6 2 7 6 5 5 5 7 8 8 9 8 7 8 8 8 8 8 8 8 7 6 5 5 6 6 6 6 6 6 6 5 4 5 4 2 2 2 2 2 3 2 1
5 3 4 4 4 3 3 5 6 7 8 8 8 8 9 9 8 7 8 7 7 8 7 6 5 5 6 6 6 6 6 5 5 5 4 3 3 3 2 2 2 2 2 1
4 2 3 3 4 5 5 6 7 7 7 8 9 9 9 8 8 8 7 7 7 8 8 7 6 5 5 6 5 6 6 5 5 4 4 4 3 2 2 2 2 2 2 2
4 4 5 4 5 6 6 7 7 7 7 8 8 9 9 7 7 7 7 6 6 7 7 8 7 6 6 6 5 6 6 5 5 4 4 3 2 2 2 1 1 2 2 2
4 4 4 5 5 7 7 7 7 8 8 8 8 8 8 7 7 7 7 6 7 7 8 7 7 7 6 6 5 5 5 5 5 4 4 3 2 1 1 2 1 1 1 1
3 4 5 5 5 6 6 6 6 7 8 8 7 7 8 7 7 7 7 7 7 8 7 7 7 7 6 6 6 5 5 5 5 5 5 4 3 2 1 1 0 0 1 2
3 4 5 5 5 6 6 6 6 7 7 6 6 7 7 7 8 8 8 8 8 8 7 6 7 7 7 6 6 5 5 5 5 4 5 4 4 3 2 1 1 1 2 4
3 3 4 4 4 5 5 6 6 6 7 7 6 7 7 8 8 8 8 8 7 7 8 8 8 7 6 7 6 5 5 4 4 5 5 5 4 4 3 2 1 0 1 1
4 3 4 4 4 5 6 6 7 7 7 7 7 7 8 8 8 8 8 7 7 8 7 8 8 7 7 6 6 5 4 6 6 5 5 4 4 3 3 3 2 1 0 1
3 3 4 4 5 6 7 7 7 7 8 8 8 8 8 8 8 8 7 7 7 7 7 7 7 8 7 6 6 6 6 5 6 5 4 4 3 3 3 3 2 2 1 1
2 3 4 5 5 6 7 8 8 8 8 9 9 9 8 8 8 8 8 8 8 8 7 7 7 8 7 6 5 5 6 5 4 4 3 2 3 3 3 3 3 2 1 1
2 4 5 6 6 7 7 7 8 8 8 9 10 10 10 9 8 8 7 8 9 8 7 6 7 7 7 6 6 5 5 5 4 4 3 3 3 3 3 3 3 2 2 1
3 4 6 7 7 7 7 7 9 8 8 9 10 10 10 9 9 8 7 7 6 6 6 7 7 7 6 4 6 6 6 5 4 4 4 4 4 3 3 3 3 2 2 2
3 5 6 7 8 8 8 8 9 9 9 9 10 10 10 9 9 8 7 8 6 5 7 7 6 5 4 5 6 7 6 5 4 4 4 4 3 4 3 3 3 2 1 1
5 5 7 8 8 9 9 9 10 11 11 10 11 11 11 10 10 8 7 6 6 5 6 6 4 3 5 6 6 7 6 5 4 4 4 4 4 3 3 3 3 2 2 1
5 6 7 8 9 10 11 11 11 10 10 11 11 11 11 9 8 7 7 5 6 5 6 6 4 4 6 6 7 7 6 5 4 4 3 3 3 3 2 3 3 3 2 1
6 7 8 8 9 10 11 11 10 9 10 11 10 10 10 8 7 6 5 6 6 5 7 5 5 7 7 6 7 6 5 4 4 4 3 3 2 3 2 2 3 3 2 1
7 8 9 9 10 9 10 10 10 9 10 8 9 10 8 6 7 7 6 7 7 7 7 5 7 7 7 6 6 6 5 4 3 3 3 2 2 2 2 2 3 2 2 2
8 7 7 8 8 8 9 9 8 8 8 8 8 7 7 6 7 6 5 7 8 7 7 5 4 5 5 6 6 6 4 3 2 3 2 2 2 2 2 2 4 3 2 2
9 8 7 8 8 8 8 8 8 8 8 8 8 8 8 7 7 7 7 7 6 5 5 6 5 5 5 5 5 5 4 3 2 2 2 1 1 1 1 2 2 2 2 2
Wind_Direction
300 304 308 309 309 315 317 313 309 320 334 1 6 358 354 352 353 347 350 355 359 3 3 357 345 340 342 331 325 322 322 320 320 319 325 321 324 328 306 293 291 287 293 298
292 289 294 297 303 307 313 321 318 325 347 12 10 8 356 353 353 355 351 349 354 359 355 349 339 338 340 334 328 327 326 318 319 329 330 327 330 328 319 313 314 308 289 280
286 294 292 295 336 334 335 344 339 344 360 6 357 3 1 357 356 354 346 346 349 351 348 341 336 340 335 325 326 323 322 317 312 324 328 336 337 330 322 316 310 303 287 266
285 289 287 6 9 5 352 6 10 3 6 6 3 6 11 11 1 352 346 350 352 346 343 337 333 335 327 323 324 321 320 316 319 323 326 331 332 329 323 314 297 279 270 266
284 292 288 335 13 2 346 6 20 9 1 355 358 345 24 12 359 352 352 353 347 338 338 334 334 335 328 322 321 320 323 327 331 328 327 323 324 321 300 294 285 269 262 252
282 296 307 5 23 0 320 352 18 7 359 351 347 330 350 354 347 347 352 353 345 337 337 338 336 333 325 321 322 323 326 325 326 325 321 320 318 314 306 285 275 276 272 254
280 288 335 35 14 343 326 9 4 1 357 351 352 343 336 337 341 346 348 346 340 335 332 329 327 325 320 323 325 321 318 317 317 314 307 298 297 299 291 280 284 280 280 264
282 287 357 28 15 23 18 4 357 355 356 351 343 337 335 334 337 344 345 345 343 334 330 327 326 324 323 322 320 320 316 316 315 313 313 321 323 302 284 278 278 273 263 258
337 358 52 40 38 28 7 350 346 345 349 341 331 329 332 334 337 340 339 342 340 335 332 328 325 325 321 319 321 322 321 321 321 325 324 321 315 305 296 295 286 293 293 289
304 305 3 6 12 10 4 352 343 342 340 333 333 335 337 339 336 335 337 338 336 333 328 325 325 325 323 322 323 319 319 319 318 318 315 316 311 308 315 315 312 315 320 334
295 318 331 353 5 350 349 346 339 336 332 332 334 333 331 332 329 327 332 333 330 325 322 324 326 328 327 324 324 320 319 319 315 308 305 309 312 328 327 339 314 314 336 351
308 345 332 337 347 348 344 337 334 331 329 329 330 330 330 327 325 329 328 324 322 322 323 325 325 324 324 323 321 318 315 313 310 310 305 293 283 296 335 243 234 169 263 263
349 341 340 340 341 342 334 330 328 325 322 326 333 335 333 328 324 322 315 317 319 318 321 323 323 323 324 319 314 307 305 307 304 306 303 294 284 273 268 254 274 276 263 240
336 328 321 328 335 334 327 324 326 326 328 331 332 331 328 322 319 319 322 320 317 316 320 322 320 325 325 318 308 303 300 293 290 292 298 298 297 294 281 271 232 232 235 227
331 320 319 328 332 328 322 326 325 323 323 324 326 323 322 321 320 320 319 316 318 321 324 323 322 327 328 323 318 306 304 304 299 297 297 298 299 301 313 322 314 172 151 197
318 324 329 328 328 326 324 323 322 321 319 319 320 320 319 318 317 316 317 321 322 321 323 322 323 323 324 323 318 306 295 292 289 293 294 293 301 315 321 318 320 317 205 152
304 309 313 314 316 316 316 318 318 319 321 321 317 316 319 320 319 318 318 319 318 317 315 317 322 322 321 319 314 310 308 301 282 282 290 301 314 316 311 312 321 321 347 99
318 314 317 316 318 316 317 319 321 323 323 322 321 320 320 318 316 316 318 319 315 312 312 317 325 320 315 316 316 308 306 303 301 297 301 315 313 304 308 320 325 321 311 209
325 332 327 320 315 314 316 320 323 324 324 324 323 323 321 318 317 314 315 310 309 309 318 323 318 307 305 317 316 298 299 307 310 310 307 306 295 298 307 306 302 310 323 344
327 325 318 315 317 319 321 325 325 325 325 325 323 320 317 316 315 312 310 303 304 309 314 315 309 300 298 321 323 303 298 298 304 307 308 309 306 306 307 310 313 340 351 351
315 314 313 315 321 323 325 327 323 318 318 319 318 315 312 309 305 302 299 298 297 301 302 297 289 298 315 324 308 298 299 296 292 295 298 296 295 305 310 316 325 336 336 341
304 304 309 314 318 321 323 319 313 312 315 315 313 312 309 305 302 296 287 285 294 306 301 296 301 329 320 311 299 292 295 302 297 293 297 302 303 305 314 326 322 316 315 346
304 307 309 311 313 313 310 308 308 311 311 311 308 306 304 299 297 297 295 294 298 301 293 299 317 301 295 290 287 286 286 287 290 286 287 295 305 311 318 322 319 321 344 12
295 298 302 304 305 300 299 300 303 303 299 297 296 298 297 293 291 289 297 300 289 284 287 292 276 280 278 281 282 281 281 280 284 288 290 299 307 307 314 313 311 322 353 25
289 295 297 298 295 294 294 293 290 289 292 295 300 302 301 302 299 298 299 298 287 274 279 273 258 266 271 279 282 283 280 283 289 297 302 303 299 305 319 322 326 343 9 26
279 281 284 284 286 287 289 292 296 301 302 302 305 308 309 307 304 303 298 299 301 295 292 292 276 263 270 278 283 285 284 281 279 280 284 285 293 306 331 357 1 1 14 29
271 269 266 268 273 278 282 288 293 300 306 311 313 312 311 311 307 307 307 305 307 303 300 301 297 285 276 279 288 293 292 290 294 298 294 291 303 323 6 15 3 5 13 28